S-NET D

operational
NORAD ID: 43186 Int'l Des: 2018-014 Owner: TUB Country: D
LEOCIRCULARRETROGRADESSO

Über S-NET D

Beschreibung wird geladen...

Live-Position

3D-Globus wird geladen...

Nächste Überflüge

Höhenverlauf

Altitude vs Time

uPlot chart will show altitude changes over time

Zweizeiliger Elementsatz

1 43186U 18014G 26061.27983183 .00007971 00000-0 42380-3 0 9996
2 43186 97.5449 326.7784 0009588 37.9682 322.2224 15.15507961442562
Epoch: 2. März 2026 • Age: 27 hours

Aktueller Status

Höhe 532.9 km
Geschwindigkeit 7.59 km/s
Subsatellitenpunkt -18.10°S, 54.79°W
Startdatum 1. Feb. 2018
Alter 8 years
Typ other

Technische Details

Klassifizierung Payload
Masse 8.00 kg
Trockenmasse 8.00 kg
Gesamtmasse 8.00 kg
Länge 0.24 m
Durchmesser 0.24 m
Spannweite 0.24 m
Form Box
Hersteller TUB
Bus-Typ TUBiX10
Phasenstatus In Orbit
Besitzer/Staat TUB/D

Große Konstellationen

Loading constellations...